This is the latest recevied weather packets stored in our database for station/object K2ATL. If no packets are shown the sender has not sent any weather packets the latest 10 day(s).
| Time | Temp. | Humidity | Pressure | Rain* | Wind** | Luminosity | Snow |
|---|---|---|---|---|---|---|---|
| 1777768190 | 11.67° C | 47% | 1099.4 hPa | 0 mm | - | 1 W/m² | - |
| 1777767887 | 12.22° C | 47% | 1099.5 hPa | 0 mm | - | 2 W/m² | - |
| 1777767583 | 12.22° C | 47% | 1099.4 hPa | 0 mm | - | 4 W/m² | - |
| 1777767280 | 12.22° C | 46% | 1099.3 hPa | 0 mm | - | 7 W/m² | - |
| 1777766978 | 12.78° C | 46% | 1099.3 hPa | 0 mm | - | 10 W/m² | - |
| 1777766674 | 12.78° C | 46% | 1099.2 hPa | 0 mm | - | 13 W/m² | - |
| 1777766372 | 12.78° C | 44% | 1099 hPa | 0 mm | - | 17 W/m² | - |
| 1777766069 | 13.33° C | 45% | 1098.8 hPa | 0 mm | - | 20 W/m² | - |
| 1777765766 | 13.33° C | 42% | 1099 hPa | 0 mm | - | 23 W/m² | - |
| 1777765462 | 13.33° C | 43% | 1098.9 hPa | 0 mm | - | 25 W/m² | - |
| 1777765160 | 13.33° C | 43% | 1098.9 hPa | 0 mm | - | 28 W/m² | - |
| 1777764855 | 13.89° C | 44% | 1098.8 hPa | 0 mm | - | 31 W/m² | - |
| 1777764553 | 13.89° C | 42% | 1098.7 hPa | 0 mm | - | 33 W/m² | - |
| 1777764248 | 13.89° C | 42% | 1098.7 hPa | 0 mm | - | 35 W/m² | - |
| 1777763945 | 13.89° C | 43% | 1098.6 hPa | 0 mm | - | 37 W/m² | - |
| 1777763643 | 13.89° C | 41% | 1098.6 hPa | 0 mm | - | 40 W/m² | - |
| 1777763341 | 13.89° C | 40% | 1098.5 hPa | 0 mm | - | 74 W/m² | - |
| 1777763039 | 13.89° C | 41% | 1098.7 hPa | 0 mm | - | 49 W/m² | - |
| 1777762736 | 13.89° C | 41% | 1098.6 hPa | 0 mm | - | 95 W/m² | - |
| 1777762432 | 13.89° C | 40% | 1098.7 hPa | 0 mm | - | 87 W/m² | - |
| 1777762129 | 13.89° C | 39% | 1098.7 hPa | 0 mm | - | 83 W/m² | - |
| 1777761825 | 13.89° C | 39% | 1098.4 hPa | 0 mm | - | 55 W/m² | - |
| 1777761523 | 13.89° C | 41% | 1098.5 hPa | 0 mm | - | 78 W/m² | - |
| 1777761221 | 13.89° C | 39% | 1098.6 hPa | 0 mm | - | 65 W/m² | - |
| 1777760918 | 13.89° C | 38% | 1098.4 hPa | 0 mm | - | 56 W/m² | - |
* Rain latest hour (hover to see other rain measurements)
** Current wind speed in m/s (hover to see current wind gust speed)